Regional Weather Roundup
Issued by NWS

Home | Current Version | Previous Version | Text Only | Print | Product List | Glossary Off
Versions: 1 2 3 4 5 6 7 8 9 10 11 12 13 14 15 16 17 18 19 20 21 22 23 24 25 26 27 28 29 30 31 32 33 34 35 36 37 38 39 40 41 42 43 44 45 46 47 48 49 50

000
ASUS43 KDTX 200810
RWRMI
MICHIGAN HOURLY REGIONAL WEATHER ROUNDUP
NATIONAL WEATHER SERVICE DETROIT/PONTIAC MI
400 AM EDT FRI APR 20 2018

NOTE: "FAIR" INDICATES FEW OR NO CLOUDS BELOW 12,000 FEET WITH NO
SIGNIFICANT WEATHER AND/OR OBSTRUCTION TO VISIBILITY.

MIZ047>049-052>055-059>063-066>070-074>076-081>083-200900-
SOUTHEAST LOWER MICHIGAN

CITY           SKY/WX    TMP DP  RH WIND       PRES   REMARKS
ADRIAN         FAIR      34  18  52 N5        30.39R WCI  30
ALMA           FAIR      33  18  54 NW7       30.39S WCI  26
ANN ARBOR      FAIR      34  19  54 NW8       30.37R WCI  27
BAD AXE        FAIR      31  21  66 NW6       30.36R WCI  25
CARO           FAIR      32  25  74 NW5       30.36S WCI  27
DETROIT CITY   FAIR      36  22  56 NW6       30.36R WCI  31
DETROIT        FAIR      35  21  56 NW3       30.37R
FLINT          FAIR      31  21  66 NW8       30.37S WCI  23
GROSSE ILE     FAIR      32  27  80 NW5       30.36R WCI  27
HILLSDALE      FAIR      32  19  59 N3        30.36S
HOWELL         FAIR      32  20  62 NW3       30.37S

CITY           SKY/WX    TMP DP  RH WIND       PRES   REMARKS
JACKSON        FAIR      33  19  56 NW3       30.38S
LAMBERTVILLE   FAIR      32  24  73 CALM      30.38S
LANSING        FAIR      33  18  53 NW5       30.39F WCI  29
LAPEER         FAIR      32  21  64 CALM      30.37R
MASON          FAIR      34  15  46 NW3       30.38F
MONROE         FAIR      31  26  83 CALM      30.37S
MT. CLEMENS    FAIR      34  23  63 NW7         N/A  WCI  28
PONTIAC        FAIR      33  21  61 NW8       30.35R WCI  26
PORT HOPE        N/A     35  27  72 NW8       30.34R WCI  29
PORT HURON     FAIR      32  21  64 NW5       30.35R WCI  27
TRI CITIES     FAIR      33  19  56 NW10      30.38R WCI  25
MIDLAND        FAIR      28  20  71 NW3       30.38S
TROY           FAIR      37  19  49 NW8       30.37S WCI  31
SAGINAW HB     FAIR      32  21  64 NW5       30.38R WCI  27
$$
MIZ043>046-050>051-056>058-064>065-071>073-077>080-200900-
SOUTHWEST LOWER MICHIGAN

CITY           SKY/WX    TMP DP  RH WIND       PRES   REMARKS
BATTLE CREEK   FAIR      30  20  66 NW5       30.40S WCI  25
BENTON HARBOR  FAIR      25  21  85 W5        30.43S WCI  19
BIG RAPIDS     FAIR      28  19  70 CALM      30.39S
COLDWATER      FAIR      31  22  68 W3        30.39S
FREMONT        FAIR      28  18  66 CALM      30.41S
HOLLAND        FAIR      29  24  82 CALM      30.43S
GRAND RAPIDS   FAIR      34  19  54 W9        30.41S WCI  27
IONIA          FAIR      33  17  53 W5        30.39S WCI  28
KALAMAZOO      FAIR      31  17  56 NW5       30.41S WCI  26
LUDINGTON      FAIR      25  25  97 CALM      30.42S
MARSHALL       FAIR      28  21  75 CALM      30.39S
MOUNT PLEASANT FAIR      34  19  55 W3        30.39R
MUSKEGON       FAIR      28  21  75 CALM      30.43S
SOUTH HAVEN    FAIR      27  25  93 CALM      30.43S
$$
MIZ016>042-200900-
NORTHERN LOWER MICHIGAN

CITY           SKY/WX    TMP DP  RH WIND       PRES   REMARKS
ALPENA         FAIR      29  20  69 NW3       30.37R
BEAVER ISLAND  FAIR      27  22  81 CALM      30.40S
BELLAIRE       FAIR      22  20  94 CALM      30.41F
CADILLAC       FAIR      25  13  60 CALM      30.37S
CHARLEVOIX     FAIR      26  21  81 CALM      30.43S
FRANKFORT      FAIR      26  22  85 CALM      30.42S
GAYLORD        FAIR      29  18  63 NW3       30.37R
GRAYLING       FAIR      22  19  90 CALM      30.37R
HARBOR SPRINGS FAIR      29  23  79 CALM      30.40S
HOUGHTON LAKE  FAIR      27  15  61 NW7       30.38R WCI  19
MANISTEE       FAIR      23  21  92 CALM      30.42S
OSCODA         FAIR      30  17  59 NW6       30.36S WCI  24
PELLSTON       FAIR      22  18  85 CALM      30.39F
ROGERS CITY    FAIR      30  24  78 W5        30.39R WCI  25
TRAVERSE CITY  FAIR      26  21  81 CALM      30.40S
$$
MIZ007>008-015-200900-
EASTERN UPPER MICHIGAN

CITY           SKY/WX    TMP DP  RH WIND       PRES   REMARKS
KINROSS        FAIR      27  24  89 N3        30.38R
MACKINAC ISLAN FAIR      29  22  75 N3        30.38S
NEWBERRY       FAIR      31  22  68 NW7       30.38S WCI  25
S. S. MARIE    FAIR      29  25  85 W5        30.37S WCI  24
MUNISING         N/A     25  18  74 S7        30.40R WCI  17
$$
MIZ004>006-011>014-085-200900-
CENTRAL UPPER MICHIGAN

CITY           SKY/WX    TMP DP  RH WIND       PRES   REMARKS
MANISTIQUE     FAIR      28  13  54 NW5       30.40R WCI  22
ESCANABA       FAIR      24  18  77 CALM      30.41S
MENOMINEE      FAIR      24  20  84 CALM      30.43S
SAWYER-GWINN   FAIR      25   9  51 CALM      30.39S
$$
MIZ001>003-009>011-084-200900-
WESTERN UPPER MICHIGAN

CITY           SKY/WX    TMP DP  RH WIND       PRES   REMARKS
IRON MOUNTAIN  FAIR      23  15  71 CALM      30.39S
HOUGHTON       FAIR      34   7  32 NW10      30.37S WCI  26
COPPER HARBOR    N/A     34  10  37 CALM      30.37S
IRONWOOD       FAIR      22  16  78 CALM      30.41S
$$

ABBREVIATIONS USED IN REMARKS
   TC - TEMPERATURE IN CELSIUS
  WCI - WIND CHILL INDEX
   HX - HEAT INDEX
  VSB - VISIBILITY




USA.gov is the U.S. government's official web portal to all federal, state and local government web resources and services.